Showing default

GONETS D1 8, 27059

Orbit data source: Space-Track

GONETS D1 8, 27059 is a payload satellite owned by Gonets (CIS) in LEO that was launched on Fri, 28 Dec 2001 UTC via a TSIKLON-3 launch vehicle from the Plesetsk Missile And Space Complex (PKMTR). Payloads include a variety of satellites, spacecraft, and rockets equipped with specific instruments for various scientific and technological missions. These include communications satellites like Starlink; space stations such as the ISS; scientific satellites like the Hubble; Earth observation satellites from companies like Planet Labs, Umbra, and HawkEye 360; GPS; miniature CubeSats for education and research; and military/defense satellites.

Loading next visibility...
GONETS D1 8 details
Identifier
27059, 2001-058E
Orbit
LEO
Last TLE update15 hours ago
Origin
Flag of CISGonets (CIS)
ManufacturerNPO PM
MissionNon-operational Civil Communications
Bus & MotorSTRELA-3, Unknown motor
Mass225 kg wet, 225 kg dry
Launch date (UTC)
2001-12-28 (23 years ago)
Launch vehicle
TSIKLON-3
Launch site
Plesetsk Missile And Space Complex (PKMTR)
Object type
Payload
Rocket body
Debris
Shape & HBRCyl + 1 Ant, 7 m
Radar Cross Section1.798 m², Medium (>0.1 m² and < 1m²)

Expand to show TLE details & history

TLE from 15 hours ago
0 GONETS D1 8
1 27059U 01058E   25046.87739278  .00000049  00000-0  22028-3 0  9995
2 27059  82.5449 164.1751 0001119 251.9526 108.1443 12.61541313 65250
Epoch: 2025-02-15T21:03Z
Definitive object data (Epoch: 2025-02-15T21:03:26.736Z)
Latitude0.00002°
Longitude62.1952°
Altitude1,419.589 km
Speed7.151 km/s
True Right ascension10h 56m 42s
True Declination0° 00' 00"
Sunlit
Object was in full shadow at TLE epoch
Visualization TLE readout
Latitude11.08655°
Longitude63.24969°
Altitude1,419.013 km
Speed7.152 km/s
Apparent Right ascension08h 24m 54s
Apparent Declination-20° 39' 09"
Sunlit
Object is in full shadow
Visualization observer readout
Local Sidereal Time15:07:06
Azimuth260.097° W
Elevation-20.959°
Doppler factor1
Orbital elements
Apogee altitude1,414.784 km
Perigee altitude1,413.04 km
Semi-major axis7,792.049 km
Eccentricity0.0001119
Inclination82.5449°
RAAN164.1751°
Arg. of periapsis251.9526°
True anomaly108.15648°
Mean anomaly108.1443°
Eccentric anomaly108.15039°
Mean motion3.15548 °/min
BSTAR0.00022028
Orbital period114.09 mins
Loading maneuver chart data...
Loading historical data...
Loading historical data...
Loading historical data...
Loading historical data...
Loading historical data...
Loading historical data...
Loading historical data...

GONETS D1 8 Visibility forecast

Observer location: undefined°, undefined

Span
Click to sort rows by Start time (UTC) header in descending order
Start Az.
Max El. time (UTC)
Max El. Az.
Max El.
End time (UTC)
End Az.
15 mins2025-02-16 18:35:35.793Z5.752° NNE2025-02-16 18:43:35.793Z79.452° E33.197°2025-02-16 18:50:35.793Z140.858° SSE
13 mins2025-02-16 20:32:35.793Z331.526° NNW2025-02-16 20:38:35.793Z267.426° W33.124°2025-02-16 20:45:35.793Z207.797° SW
13 mins2025-02-17 07:25:35.793Z148.219° SSE2025-02-17 07:31:35.793Z89.796° E33.304°2025-02-17 07:38:35.793Z23.814° NE
13 mins2025-02-17 09:20:35.793Z223.821° SW2025-02-17 09:26:35.793Z283.366° WNW33.153°2025-02-17 09:33:35.793Z351.223° N
|